Home   Weather   Marseille   Past weeks

Flag for France Past Weather in Marseille, Provence-Alpes-Côte d'Azur, France — Yesterday and Last 2 Weeks

Now
57 °F

Mostly cloudy.


Feels Like: 55 °F
Forecast: 52 / 58 °F
Wind: 8 mph from East

Location: Marseille / Marignane

Current Time: Dec 3, 2016 at 7:00:52 pm

Latest Report: Dec 3, 2016 at 6:00 pm


Visibility: N/A

Pressure: 30.04 "Hg

Humidity: 67%

Dew Point: 46 °F

Location of MarseilleLocation

Past Weather in Marseille — Graph

°F

Marseille Temperature Yesterday

Maximum temperature yesterday: 52 °F (at 2:30 pm)
Minimum temperature yesterday: 32 °F (at 4:00 am)
Average temperature yesterday: 40 °F

High & Low Weather Summary for the Past Weeks

 TemperatureHumidityPressure
High70 °F (Nov 23, 10:00 am)100% (Nov 19, 5:30 am)30.54 "Hg (Nov 19, 5:30 am)
Low32 °F (Dec 2, 4:00 am)47% (Nov 20, 3:00 am)29.74 "Hg (Nov 21, 7:30 am)
Average54 °F78%29.98 "Hg
* Reported Nov 18 6:00 pm — Dec 3 6:00 pm, Marseille, Weather by CustomWeather, © 2016

Note: Actual official high and low records may vary slightly from our data, if they occured in-between our weather recording intervals... More about our weather records

Advertising

Marseille Weather History for the Previous 24 Hours

Scroll right to see more
 ConditionsComfort  
Time TempWeatherWind HumidityBarometerVisibility
6:00 pm
Sat, Dec 3
57 °FMostly cloudy.8 mph67%30.04 "HgN/A
5:30 pm57 °FMostly cloudy.7 mph72%30.04 "HgN/A
5:00 pm57 °FPartly sunny.3 mph77%30.04 "HgN/A
4:30 pm59 °FBroken clouds.8 mph68%30.04 "HgN/A
4:00 pm59 °FMostly cloudy.10 mph68%30.01 "HgN/A
3:30 pm61 °FBroken clouds.12 mph59%30.01 "HgN/A
3:00 pm63 °FPassing clouds.10 mph59%30.01 "HgN/A
2:30 pm63 °FSunny.8 mph56%30.01 "Hg10 mi
2:00 pm61 °FSunny.15 mph52%30.01 "Hg10 mi
1:30 pm61 °FPartly sunny.13 mph55%30.01 "HgN/A
1:00 pm61 °FMostly cloudy.8 mph55%30.01 "HgN/A
12:30 pm57 °FBroken clouds.3 mph67%30.04 "HgN/A
12:00 pm52 °FPartly sunny.2 mph77%30.04 "HgN/A
11:30 am50 °FPartly sunny.3 mph82%30.04 "HgN/A
11:00 am48 °FPartly sunny.6 mph82%30.04 "HgN/A
10:30 am46 °FPartly sunny.5 mph87%30.04 "Hg6 mi
10:00 am46 °FPartly sunny.2 mph87%30.04 "HgN/A
9:30 am45 °FPartly sunny.2 mph87%30.04 "HgN/A
9:00 am41 °FPartly sunny.3 mph93%30.04 "HgN/A
8:30 am37 °FPartly sunny.1 mph93%30.01 "Hg4 mi
8:00 am36 °FPartly sunny.3 mph93%30.01 "Hg4 mi
7:30 am36 °FPassing clouds.3 mph93%30.01 "Hg4 mi
7:00 am34 °FClear.5 mph93%30.01 "Hg5 mi
6:30 am34 °FClear.3 mph93%30.01 "Hg5 mi
6:00 am34 °FClear.5 mph93%29.98 "Hg5 mi
5:30 am34 °FClear.3 mph87%29.98 "Hg5 mi
5:00 am34 °FClear.2 mph93%29.98 "Hg6 mi
4:30 am34 °FClear.5 mph93%29.98 "Hg6 mi
4:00 am34 °FClear.6 mph93%29.98 "Hg4 mi
3:00 am34 °FClear.3 mph93%29.98 "Hg5 mi
2:30 am34 °FClear.5 mph93%29.98 "Hg5 mi
2:00 am34 °FClear.6 mph87%29.98 "Hg4 mi
1:30 am34 °FClear.6 mph87%29.98 "Hg4 mi
1:00 am34 °FClear.5 mph87%29.98 "Hg4 mi
12:30 am34 °FClear.5 mph87%29.98 "Hg4 mi
12:00 am36 °FClear.6 mph81%29.98 "Hg4 mi
11:30 pm
Fri, Dec 2
36 °FClear.2 mph81%29.98 "Hg5 mi
11:00 pm37 °FClear.2 mph81%29.98 "Hg5 mi
10:30 pm36 °FClear.2 mph87%29.98 "Hg5 mi
10:00 pm37 °FClear.1 mph81%29.98 "Hg5 mi
9:30 pm37 °FClear.3 mph81%29.95 "Hg6 mi
9:00 pm43 °FClear.3 mph66%29.95 "Hg10 mi
8:30 pm43 °FClear.3 mph66%29.98 "Hg10 mi
8:00 pm43 °FClear.6 mph71%29.95 "Hg10 mi
7:30 pm45 °FPassing clouds.6 mph71%29.98 "HgN/A
7:00 pm45 °FPassing clouds.7 mph61%29.95 "HgN/A
Weather by CustomWeather, © 2016

See weather overviewHow to use our weather pages